Location: Clayton (historical)
(34.0300°N, 118.0259°W)
Time: 09:20:21
(UTC+00:00)

Hubble Space Telescope - Pass Details

Date: 22 January 2021
Orbit: 536 x 539 km, 28.5° (Epoch: 28 February)

Event Time Altitude Azimuth Distance (km) Brightness Sun altitude
Rises 03:25:29 0° 261° (W) 2,675 5.6 -27.4°
Reaches altitude 10° 03:27:52 10° 253° (WSW) 1,784 4.3 -27.9°
Enters shadow 03:30:23 28° 223° (SW) 1,024 2.5 -28.5°
